User: anonymous   Login
Location: NJAA Observatory
(40.6819°N, 74.8979°W)
Time: 00:22:26
(UTC-04:00)
Language:

ALOS - Orbit

View from above orbital plane
View from above orbital plane
View from above satellite
View from above satellite

Ground track
Ground track

The orbit data is extracted from the following two-line orbital elements,

1 28931U 06002A   15216.53238980  .00000531  00000-0  11504-3 0  9997
2 28931 097.9288 263.9940 0000974 047.2941 312.8344 14.61933953507706
Epoch (UTC): 04 August 2015 12:46:38
Eccentricity: 0.0000974
inclination: 97.9288°
perigee height: 686 km
apogee height: 687 km
right ascension of ascending node: 263.9940°
argument of perigee: 47.2941°
revolutions per day: 14.61933953
mean anomaly at epoch: 312.8344°
orbit number at epoch: 50770

The dashed part of the orbit path shows where the satellite is in the earth's shadow,  

DLR